EHI
0 1 3 3 3 3 3 2 1 2 4 3 3 3 3 2 1 0 0 0 0 0 0 0 0 1 1 1 0 0 0 0 0 0 0 0 0 0 0 0 0 0 0
1 2 3 3 3 3 3 2 1 2 3 2 2 2 3 1 0 0 0 0 0 0 0 0 0 0 0 0 0 0 0 0 0 0 0 0 0 0 0 0 0 0 0
1 2 3 3 3 3 1 1 2 1 1 1 0 1 2 1 0 0 0 0 0 0 0 0 0 0 0 0 0 0 0 0 0 0 0 0 0 0 0 0 0 0 0
0 1 1 2 2 2 1 1 1 1 0 0 0 0 1 1 0 0 0 0 0 0 0 0 0 0 0 0 0 0 0 0 0 0 0 0 0 0 0 0 0 0 0
0 0 0 1 1 1 0 0 0 0 0 0 0 0 1 1 0 0 0 0 0 0 0 0 0 0 0 0 0 0 0 0 0 0 0 0 0 0 0 0 0 0 0
0 0 0 0 0 0 0 0 0 0 0 0 0 0 0 0 0 0 0 0 0 0 0 0 0 0 0 0 0 0 0 0 0 0 0 0 0 0 0 0 0 0 0
0 0 0 0 0 0 0 0 0 0 0 0 0 0 0 0 0 0 0 0 0 0 0 0 0 0 0 0 0 0 0 0 0 0 0 0 0 0 0 0 0 0 0
0 0 0 0 0 0 1 1 1 0 0 0 0 0 0 0 1 0 0 0 0 0 0 0 0 0 0 0 0 0 0 0 0 0 0 0 0 0 0 0 0 0 0
0 0 0 0 0 0 1 2 2 1 0 0 0 0 0 0 0 0 0 0 0 0 0 0 0 0 0 0 0 0 0 0 0 0 0 0 0 0 0 0 0 0 0
0 0 0 0 0 0 1 1 1 1 0 0 0 0 0 0 0 0 0 0 0 0 0 0 0 0 0 0 0 0 0 0 0 0 0 0 0 0 0 0 0 0 0
0 0 0 0 0 0 0 0 0 0 0 0 0 0 0 0 0 0 0 0 0 0 0 0 0 0 0 0 0 0 0 0 0 0 0 0 0 0 0 1 1 1 1
0 0 0 0 0 0 0 0 0 0 0 0 0 1 1 0 0 0 0 0 0 0 0 0 0 0 0 0 0 0 0 0 0 0 0 0 0 0 1 2 3 3 2
0 0 0 0 0 0 0 0 0 0 0 0 0 1 1 0 0 0 0 0 0 0 0 0 0 0 0 0 0 0 0 0 0 0 0 0 0 0 1 2 3 3 3
0 0 0 0 0 0 0 0 0 0 0 0 0 1 1 0 0 0 0 0 0 0 0 0 0 0 0 0 0 0 0 0 0 0 0 0 0 0 0 1 1 1 2
0 0 0 0 0 0 0 0 0 0 0 0 0 0 0 0 0 0 0 0 0 0 0 0 0 0 0 0 0 0 0 0 0 0 0 0 0 0 0 0 0 0 1
0 0 0 0 0 0 0 0 0 0 0 0 0 0 0 0 0 0 0 0 0 0 0 0 0 0 0 0 0 0 0 0 0 0 0 0 0 0 0 0 0 0 0
0 0 0 0 0 0 0 0 0 0 0 0 0 0 0 0 0 0 0 0 0 0 0 0 0 0 0 0 0 0 0 0 0 0 0 0 0 0 0 0 0 0 0
0 0 0 0 0 0 0 0 0 0 0 0 0 0 0 0 0 0 0 0 0 0 0 0 0 0 0 0 0 0 0 0 0 0 0 0 0 0 0 0 0 0 0
0 0 1 1 0 0 0 0 0 0 0 0 0 0 0 0 0 0 0 0 0 0 0 0 0 0 0 0 0 0 0 0 0 0 0 0 0 0 0 0 0 0 0
1 1 2 2 1 0 0 0 0 0 0 0 0 0 0 0 0 0 0 0 0 0 0 0 0 0 0 0 0 0 0 0 0 0 0 0 0 0 0 0 0 0 0
3 3 4 4 2 1 0 0 0 0 0 0 0 0 0 0 0 0 0 0 0 0 0 0 0 0 0 0 0 0 0 0 0 0 0 0 0 0 0 0 0 0 0
5 5 5 4 3 1 0 0 0 0 0 0 0 0 0 0 0 0 0 0 0 0 0 0 0 0 0 0 0 0 0 0 0 0 0 0 0 0 0 0 0 0 0
5 5 4 4 4 2 1 1 1 0 0 0 0 0 0 0 0 0 0 0 0 0 0 0 0 0 0 0 0 0 0 0 0 0 0 0 0 0 0 0 0 0 0
4 3 3 3 4 3 2 2 1 0 0 0 0 0 0 0 0 0 0 0 0 0 0 0 0 0 0 0 0 0 0 0 0 0 0 0 0 0 0 0 0 0 0
3 2 3 4 4 4 3 2 1 0 0 0 0 0 0 0 0 0 0 0 0 0 0 0 0 0 0 0 0 0 0 0 0 0 0 0 0 0 0 0 0 0 0
3 3 3 5 5 4 3 2 1 0 0 0 0 0 0 0 0 0 0 0 0 0 0 0 0 0 0 0 0 0 0 0 0 0 0 0 0 0 0 0 0 0 0
Wind_Speed
2 3 5 3 4 5 5 6 6 7 7 7 7 7 8 8 8 8 8 8 7 7 7 7 7 7 7 7 7 6 7 7 7 7 7 7 6 5 5 3 1 4 6
3 4 6 4 4 5 5 6 6 6 7 7 7 7 8 8 8 8 8 8 8 7 7 7 7 7 7 7 7 7 7 7 7 6 5 6 7 6 6 5 5 5 5
4 4 6 5 5 5 6 6 6 6 7 8 8 8 8 8 8 8 8 7 7 7 7 6 6 7 7 7 7 7 7 7 6 4 2 4 7 7 6 6 6 5 5
5 4 6 6 6 6 6 6 7 7 8 8 8 8 8 8 8 8 8 7 7 6 6 6 7 6 6 7 7 8 8 7 5 0 2 5 6 9 7 7 7 6 6
5 5 7 6 6 7 6 7 7 7 7 7 8 8 8 8 8 8 7 7 7 7 7 7 6 6 6 7 7 8 8 7 2 1 5 5 6 8 8 8 7 7 6
6 6 8 6 7 7 7 7 7 7 7 7 8 8 8 8 7 7 7 7 7 7 7 7 7 7 7 7 8 8 7 4 0 5 5 5 6 7 7 7 7 7 7
6 6 8 7 6 7 7 7 7 8 8 8 8 8 8 8 8 7 7 7 7 7 7 7 7 8 8 8 8 8 7 3 4 5 5 6 7 8 7 7 7 7 7
6 5 7 8 6 6 6 7 7 8 8 8 8 8 8 8 9 8 8 8 7 7 7 7 8 8 8 9 9 9 6 4 5 5 6 7 9 8 8 8 8 8 7
5 5 5 6 7 8 7 7 7 8 8 8 8 8 8 8 9 8 8 8 7 7 7 7 8 8 9 9 10 9 7 4 4 4 6 7 8 8 8 8 8 7 7
5 5 5 5 5 6 7 8 7 8 8 8 8 8 7 7 8 7 7 8 7 7 7 8 9 10 10 10 10 8 3 0 6 6 6 8 9 9 9 8 8 8 7
4 4 5 5 5 5 6 7 7 7 7 6 8 7 4 4 6 6 9 8 8 8 9 9 10 10 9 10 9 5 1 4 6 6 7 10 10 10 10 10 9 8 8
4 4 4 4 4 5 4 5 4 4 4 3 4 4 3 4 5 5 8 8 8 8 9 9 9 7 3 5 6 2 3 6 6 6 8 11 10 10 11 10 10 9 9
4 3 3 4 4 4 3 3 2 3 3 4 5 5 3 4 4 3 3 5 6 5 6 6 5 4 5 5 4 5 6 5 5 6 9 12 11 11 11 11 11 11 10
4 4 3 4 4 4 4 3 2 3 3 3 4 5 3 3 3 4 3 4 3 3 4 4 4 6 6 6 6 7 7 5 5 5 9 13 13 12 12 12 12 12 12
4 4 4 3 3 4 4 2 2 3 3 4 3 3 4 3 3 3 3 3 4 4 4 4 5 6 6 6 7 7 7 8 7 7 7 13 14 14 13 13 13 13 13
5 4 5 4 3 3 4 3 3 3 3 3 3 2 4 3 3 3 3 3 4 4 4 4 5 5 5 6 7 7 7 7 7 7 6 8 13 14 14 14 14 13 13
5 5 5 4 4 3 3 3 3 3 3 3 3 3 4 3 3 3 3 3 4 4 4 4 5 5 5 5 6 7 6 7 7 7 7 5 7 11 14 14 14 14 14
5 5 5 4 4 4 3 3 2 3 3 2 2 2 3 3 3 3 3 3 4 3 3 4 4 4 5 5 5 5 5 5 7 7 6 6 6 6 10 13 14 14 14
5 5 6 5 5 4 4 3 2 2 2 2 2 2 2 3 3 4 2 2 3 3 2 3 4 3 4 5 5 4 5 5 5 6 7 7 7 6 6 8 10 13 14
6 5 6 5 5 5 4 3 3 2 2 2 2 2 2 1 3 3 3 3 3 3 2 3 4 4 4 3 4 5 5 5 4 5 5 5 6 7 7 7 5 8 12
7 7 7 7 6 5 4 3 2 2 2 2 2 2 2 2 2 3 2 2 2 3 3 4 4 5 3 2 3 4 4 4 5 4 4 4 6 6 7 7 6 6 5
8 8 8 8 7 6 4 3 2 2 2 2 2 2 2 2 2 2 3 3 3 3 3 3 3 2 2 1 0 1 2 4 4 4 4 4 5 5 6 7 7 7 6
9 9 7 8 8 7 6 3 3 3 2 3 3 2 2 2 2 2 3 3 3 3 3 3 3 2 1 1 1 2 1 2 3 3 5 4 5 5 5 6 7 8 7
10 8 8 8 8 7 7 5 5 3 3 2 2 3 3 3 3 2 3 2 3 2 3 3 2 1 1 1 1 1 2 2 0 3 3 4 5 5 6 5 6 7 8
9 8 8 9 8 8 6 5 5 3 2 2 2 3 3 3 3 3 3 3 3 2 2 2 2 1 1 0 0 1 1 1 1 1 3 3 3 4 5 5 5 5 7
9 8 8 9 8 8 7 6 5 5 4 4 4 3 3 3 3 4 3 3 3 3 3 2 2 2 1 1 0 0 0 0 0 1 2 3 3 4 4 4 4 5 5
Wind_Direction
93 82 85 87 104 112 108 103 100 100 101 102 102 100 97 94 92 93 94 92 93 92 90 88 88 87 85 83 85 84 81 81 81 79 79 76 72 73 73 71 101 105 78
95 92 93 85 100 109 105 100 100 104 104 102 100 99 95 93 92 90 88 89 89 88 89 89 87 87 84 82 81 80 79 80 81 81 91 99 79 67 66 59 37 60 75
95 95 108 89 90 97 102 101 99 99 100 102 102 100 95 94 92 88 83 83 85 87 86 84 82 83 84 84 82 78 77 75 76 94 169 100 90 72 62 58 60 68 69
89 86 82 88 92 94 92 95 99 99 98 98 99 98 93 92 89 87 85 82 81 84 83 79 77 80 85 88 85 81 77 74 72 216 98 65 70 70 60 57 56 63 62
89 86 86 85 90 93 94 95 95 95 96 95 96 97 93 89 87 86 84 80 79 82 82 77 74 77 83 88 89 83 78 74 83 54 66 63 64 64 56 54 53 54 57
93 86 87 81 86 89 91 95 96 98 97 95 95 96 95 91 86 84 82 80 79 81 81 78 75 75 78 83 87 83 76 62 96 63 62 60 64 63 56 54 51 49 48
89 86 89 80 88 93 94 91 91 93 95 94 93 94 92 89 85 85 83 81 80 80 83 83 81 78 79 85 86 80 70 34 57 65 59 58 59 57 55 53 52 47 42
91 91 99 100 90 87 90 95 96 96 94 93 91 92 90 87 83 81 82 82 79 81 85 85 85 81 84 88 86 80 61 355 74 66 63 63 60 58 55 52 50 47 42
95 94 94 108 113 109 96 94 98 98 94 93 92 92 89 87 84 81 84 82 83 85 88 90 90 87 87 88 84 81 69 16 51 57 63 62 59 58 57 54 50 45 40
104 102 95 96 99 111 114 103 97 97 96 95 93 90 95 105 102 100 100 85 83 85 87 89 94 90 89 87 83 79 73 331 56 59 56 63 56 56 56 54 50 45 40
112 106 103 100 99 100 101 113 118 114 109 125 117 116 141 113 104 110 80 83 83 82 82 86 90 91 97 93 83 80 71 63 65 57 54 54 53 55 55 52 48 45 41
129 112 107 109 108 103 100 112 116 115 116 106 97 106 99 89 82 87 101 92 86 86 92 86 93 113 118 101 105 134 67 66 65 66 60 49 51 53 53 51 48 46 44
128 122 121 119 112 105 104 100 100 97 104 101 95 103 97 99 105 99 105 118 110 117 103 107 124 88 83 76 69 70 60 57 60 63 59 49 51 54 54 53 51 49 46
142 124 124 130 124 109 104 98 103 103 99 93 95 91 95 87 82 86 88 88 97 92 86 87 85 86 84 88 80 72 70 64 61 66 61 49 48 51 54 53 51 49 47
151 145 135 136 124 116 105 115 115 102 92 96 87 91 97 97 93 97 93 90 83 89 98 91 89 84 81 77 72 66 66 64 61 60 72 57 47 46 48 50 48 48 47
170 157 150 158 145 140 134 136 110 108 117 107 98 89 94 99 104 107 105 95 92 86 81 85 91 93 84 75 71 69 64 66 64 59 63 72 61 48 42 43 44 44 44
172 164 158 163 157 146 124 115 113 111 111 107 107 111 110 102 106 108 95 99 104 101 105 96 95 95 94 89 78 68 65 61 62 59 57 51 67 65 49 42 41 41 42
178 170 157 167 170 150 139 136 124 121 112 102 106 105 109 113 96 89 92 103 104 105 109 105 103 105 97 89 79 68 68 67 62 56 58 57 47 53 63 50 43 39 38
184 181 169 167 164 154 146 142 130 119 110 112 115 108 115 114 118 108 97 108 114 114 115 116 106 100 96 92 93 82 68 63 60 56 56 54 55 49 55 71 60 45 38
187 186 177 166 169 156 161 161 148 126 125 121 117 128 113 124 123 120 136 136 121 126 124 121 110 103 96 98 92 84 73 70 66 57 53 55 50 49 47 45 56 65 51
186 188 184 180 175 170 172 177 162 148 143 130 121 113 135 149 137 137 147 135 145 139 136 132 124 125 121 117 119 112 102 83 70 66 52 49 58 52 53 50 43 39 62
185 191 190 184 179 176 179 170 156 147 148 126 139 141 157 156 154 146 154 161 157 141 139 130 137 134 123 169 277 163 144 128 85 66 64 52 52 57 51 50 51 47 41
187 192 190 182 177 175 171 163 157 148 159 160 160 149 155 160 163 163 161 166 157 159 146 156 163 158 157 164 332 325 320 88 109 92 67 64 59 52 53 48 49 51 50
189 187 186 178 176 170 170 175 176 169 165 158 164 157 159 164 157 166 160 159 160 149 148 163 161 167 189 178 105 354 355 28 224 126 107 78 64 55 50 49 49 50 49
182 180 182 176 172 169 173 172 183 170 164 158 168 163 164 154 153 154 154 157 160 148 144 141 142 179 184 314 37 124 105 109 300 86 107 105 93 68 55 50 51 49 50
177 177 177 175 175 172 175 178 183 173 173 169 169 161 162 156 152 149 154 159 161 155 152 152 148 148 114 67 9 114 173 43 100 94 112 121 103 82 70 59 52 52 51